This is the latest recevied weather packets stored in our database for station/object KH6DH-13. If no packets are shown the sender has not sent any weather packets the latest 10 day(s).
| Time | Temp. | Humidity | Pressure | Rain* | Wind** | Luminosity | Snow |
|---|---|---|---|---|---|---|---|
| 1788043761 | 29.44° C | - | - | 0 mm | 2.24 m/s, 110° | - | - |
| 1788043160 | 29.44° C | - | - | 0 mm | 2.24 m/s, 79° | - | - |
| 1788042559 | 30° C | - | - | 0 mm | 2.24 m/s, 117° | - | - |
| 1788041958 | 29.44° C | - | - | 0 mm | 1.79 m/s, 48° | - | - |
| 1788041357 | 28.89° C | - | - | 0 mm | 0.89 m/s, 186° | - | - |
| 1788040756 | 28.89° C | - | - | 0 mm | 1.34 m/s, 17° | - | - |
| 1788040155 | 28.89° C | - | - | 0 mm | 1.79 m/s, 90° | - | - |
| 1788039554 | 28.89° C | - | - | 0 mm | 0.89 m/s, 121° | - | - |
| 1788038953 | 28.33° C | - | - | 0 mm | 2.68 m/s, 127° | - | - |
| 1788038352 | 28.89° C | - | - | 0 mm | 1.79 m/s, 93° | - | - |
| 1788037751 | 27.78° C | - | - | 0 mm | 1.34 m/s, 149° | - | - |
| 1788037150 | 27.22° C | - | - | 0 mm | 1.79 m/s, 93° | - | - |
| 1788036549 | 26.67° C | - | - | 0 mm | 0.45 m/s, 207° | - | - |
| 1788035948 | 26.67° C | - | - | 0 mm | 1.79 m/s, 82° | - | - |
| 1788035344 | 26.67° C | - | - | 1.02 mm | 3.13 m/s, 69° | - | - |
| 1788034743 | 26.67° C | - | - | 1.02 mm | 3.58 m/s, 285° | - | - |
| 1788034142 | 26.11° C | - | - | 1.02 mm | 2.68 m/s, 155° | - | - |
| 1788033541 | 25.56° C | - | - | 1.02 mm | 2.68 m/s, 69° | - | - |
| 1788032940 | 25.56° C | - | - | 1.02 mm | 1.79 m/s, 8° | - | - |
| 1788032339 | 25.56° C | - | - | 1.02 mm | 0.89 m/s, 153° | - | - |
| 1788031738 | 25° C | - | - | 1.78 mm | 0.89 m/s, 101° | - | - |
| 1788031137 | 25° C | - | - | 1.78 mm | 2.68 m/s, 18° | - | - |
| 1788030536 | 25° C | - | - | 1.78 mm | 0.45 m/s, 7° | - | - |
| 1788029935 | 25° C | - | - | 1.78 mm | 0.45 m/s, 294° | - | - |
| 1788029334 | 24.44° C | - | - | 1.78 mm | 1.34 m/s, 15° | - | - |
* Rain latest hour (hover to see other rain measurements)
** Current wind speed in m/s (hover to see current wind gust speed)